Weather in Atamanovsky

Russia / Chelyabinsk Oblast     52°13′44″N   60°42′14″E
temp.,
°C
wind,
m/s
gust,
m/s
humid.,
%
clouds,
%
prec.,
mm/h
press.,
hPa
HPBL,
m
28 january, thu
thu2823:00−9sw479389 0.0 1036119
02:00−10sw489481 0.0 1036133
05:00−9ssw479882 0.0 1035154
08:00−7sw489490 0.0 1035295
11:00−10ssw489380 0.0 1034170
14:00−7ssw511870 0.0 1033289
17:00−10ssw34890 0.0 103364
20:00−11s47890 0.0 1032111
29 january, fri
fri2923:00−12ssw468812 0.0 103185
02:00−12ssw488996 0.0 1031121
05:00−12s478998 0.0 1030108
08:00−12s348998 0.0 102958
11:00−10s4108899 0.0 1029243
14:00−8s41089100 0.0 1027307
17:00−9sse41089100 0.0 1026197
20:00−11sse4889100 0.0 1025143
30 january, sat
sat3023:00−10sse51291100 0.0 1024264
02:00−9se4792100 0.0 1022157
05:00−8sse4993100 0.0 1020283
08:00−7sse4893100 0.1 1018343
11:00−6s4792100 0.2 1019334
14:00−6s3593100 0.0 1018266
17:00−9ssw2394100 0.0 101821
20:00−7sw239474 0.0 1019117
31 january, sun
sun3123:00−11sw239576 0.0 101921
02:00−11wsw339583 0.0 101921
05:00−12w239556 0.0 102021
08:00−12nw229618 0.0 102021
11:00−10nw119211 0.0 102021
14:00−7wsw119034 0.0 102021
17:00−10w118821 0.0 102121
20:00−11sse11870 0.0 102221
1 february, mon
mon123:00−11s23890 0.0 102321
02:00−11ssw34920 0.0 102338
05:00−11ssw34955 0.0 102359
08:00−11sw4109476 0.0 1023207
11:00−7sw6128988 0.0 1023284
14:00−4sw61187100 0.0 1023347
17:00−4wsw51191100 0.0 1023323
20:00−5wsw5993100 0.0 1025196